Tracking 30995 objects as of 5-Jul-2025
HD Live streaming from Space Station
objects crossing your sky now

USA 40 R/B DEB

Track USA 40 R/B DEB now!
10-day predictions


NORAD ID: 44524
Int'l Code: 1989-061BX
Perigee: 464.2 km
Apogee: 5,953.6 km
Inclination: 57.0 °
Period: 155.5 minutes
Semi major axis: 9579 km
RCS: Unknown
Launch date: August 8, 1989
Source: United States (US)
Launch site: AIR FORCE EASTERN TEST RANGE (AFETR)

Note: This is SATELLITE DEBRIS
Your satellite tracking list
STARLINK-31574
Track 1 satellite(s)




NASA's NSSDC Master Catalog

Two Line Element Set (TLE):
1 44524U 89061BX  25184.69105852  .00006654  00000-0  28549-2 0  9990
2 44524  57.0319  30.1314 2865074   2.6357 358.6445  9.25893893173713
Source of the keplerian elements: AFSPC